Location: Berg
(48.4333°N, 13.9167°E)
Time: 08:53:26
(UTC+00:00)

Cosmos 1092 Rocket - Pass Details

Date: 18 September 2020
Orbit: 954 x 995 km, 82.9° (Epoch: 27 October)

Event Time Altitude Azimuth Distance (km) Brightness Sun altitude
Rises 19:48:50 0° 347° (NNW) 3,646 7.7 -25.5°
Reaches altitude 10° 19:51:21 10° 344° (NNW) 2,697 7.0 -25.8°
Maximum altitude 19:57:23 59° 267° (W) 1,107 4.4 -26.6°
Enters shadow 20:00:15 31° 202° (SSW) 1,617 5.0 -27.0°
